Weather History for Crossville, TN

Change the Weather History Date:

Wednesday, October 23, 2013

  Actual Average Record
Temperature  
Mean Temperature 40 °F 55 °F  
Max Temperature 48 °F 66 °F 79 °F (1963)
Min Temperature 31 °F 44 °F 26 °F (1997)
Degree Days  
Heating Degree Days 25    
Month to date heating degree days 136  
Since 1 July heating degree days 151  
Cooling Degree Days 0    
Month to date cooling degree days 26  
Year to date cooling degree days 919  
Moisture  
Dew Point 36 °F    
Average Humidity 73    
Maximum Humidity 93    
Minimum Humidity 53    
Precipitation  
Precipitation 0.00 in 0.09 in 2.10 in (1984)
Month to date precipitation 0.74 2.21  
Year to date precipitation 50.39 44.21  
Sea Level Pressure  
Sea Level Pressure 29.96 in    
Wind  
Wind Speed 6 mph (WNW)    
Max Wind Speed 20 mph    
Max Gust Speed 29 mph    
Visibility 9 miles    
Events      
T = Trace of Precipitation, MM = Missing Value Source: NWS Daily Summary

Daily Weather History Graph

Daily Weather History Graph

Search for Another Location

Airport:

Trip Planner

Search our weather history database for the weather conditions in past years. The results will help you decide how hot, cold, wet, or windy it might be!

Date:

Astronomy

Oct. 23, 2013 Rise Set
Actual Time 6:54 AM CDT 5:54 PM CDT
Civil Twilight 6:28 AM CDT 6:20 PM CDT
Nautical Twilight 5:58 AM CDT 6:50 PM CDT
Astronomical Twilight 5:28 AM CDT 7:19 PM CDT
Moon 9:29 PM CDT (10/23) 11:06 AM CDT (10/23)
Length of Visible Light 11h 51m
Length of Day
10h 59m
Waning Gibbous, 79% of the Moon is Illuminated
Oct 23
Waning Gibbous
Oct 26
Last Quarter
Nov 3
New
Nov 9
First Quarter
Nov 17
Full

Hourly Weather History & Observations

Time (CDT) Temp. Windchill Dew Point Humidity Pressure Visibility Wind Dir Wind Speed Gust Speed Precip Events Conditions
12:53 AM 46.0 °F - 45.0 °F 96% 29.86 in 5.0 mi Calm Calm - N/A   Scattered Clouds
1:01 AM 46.4 °F 45.2 °F 44.6 °F 93% 29.86 in 4.0 mi Variable 3.5 mph - N/A   Mostly Cloudy
1:10 AM 46.4 °F 45.2 °F 44.6 °F 93% 29.87 in 4.0 mi SW 3.5 mph - N/A   Mostly Cloudy
1:46 AM 46.4 °F 44.3 °F 44.6 °F 93% 29.86 in 5.0 mi West 4.6 mph - N/A   Scattered Clouds
1:53 AM 46.9 °F - 45.0 °F 93% 29.85 in 5.0 mi West 4.6 mph - N/A   Scattered Clouds
2:53 AM 46.9 °F - 44.1 °F 90% 29.83 in 10.0 mi West 4.6 mph - N/A   Mostly Cloudy
3:53 AM 46.0 °F 43.9 °F 43.0 °F 89% 29.83 in 10.0 mi West 4.6 mph - N/A   Scattered Clouds
4:14 AM 46.4 °F 44.3 °F 42.8 °F 87% 29.84 in 10.0 mi WSW 4.6 mph - N/A   Mostly Cloudy
4:45 AM 46.4 °F 42.9 °F 42.8 °F 87% 29.84 in 10.0 mi West 6.9 mph - N/A   Overcast
4:53 AM 46.0 °F 42.5 °F 42.1 °F 86% 29.83 in 10.0 mi West 6.9 mph - N/A   Overcast
5:53 AM 45.0 °F 40.1 °F 39.9 °F 82% 29.85 in 10.0 mi West 9.2 mph 18.4 mph N/A   Overcast
6:42 AM 42.8 °F 36.2 °F 37.4 °F 81% 29.88 in 10.0 mi WNW 12.7 mph 23.0 mph N/A   Mostly Cloudy
6:53 AM 43.0 °F 36.0 °F 37.0 °F 80% 29.88 in 10.0 mi WNW 13.8 mph 21.9 mph N/A   Mostly Cloudy
7:25 AM 42.8 °F 38.0 °F 37.4 °F 81% 29.89 in 10.0 mi WNW 8.1 mph - N/A   Mostly Cloudy
7:37 AM 42.8 °F 37.5 °F 37.4 °F 81% 29.90 in 10.0 mi WNW 9.2 mph 17.3 mph N/A   Overcast
7:53 AM 43.0 °F 38.2 °F 37.9 °F 82% 29.91 in 10.0 mi WNW 8.1 mph - N/A   Overcast
8:40 AM 42.8 °F 37.0 °F 37.4 °F 81% 29.94 in 10.0 mi NW 10.4 mph 20.7 mph N/A   Overcast
8:53 AM 41.0 °F 33.5 °F 36.0 °F 82% 29.96 in 10.0 mi WNW 13.8 mph 23.0 mph N/A   Overcast
9:24 AM 41.0 °F 33.1 °F 35.6 °F 81% 29.96 in 10.0 mi NW 15.0 mph 23.0 mph N/A   Overcast
9:53 AM 39.9 °F 32.5 °F 35.1 °F 83% 29.97 in 10.0 mi NW 12.7 mph 20.7 mph N/A   Overcast
10:53 AM 39.9 °F 33.4 °F 33.1 °F 77% 30.02 in 10.0 mi WNW 10.4 mph 18.4 mph N/A   Overcast
11:53 AM 42.1 °F 35.2 °F 32.0 °F 67% 30.03 in 10.0 mi NW 12.7 mph 21.9 mph N/A   Overcast
12:16 PM 44.6 °F 37.4 °F 32.0 °F 61% 30.02 in 10.0 mi WNW 16.1 mph 20.7 mph N/A   Overcast
12:29 PM 42.8 °F 35.8 °F 30.2 °F 61% 30.02 in 10.0 mi WNW 13.8 mph 20.7 mph N/A   Overcast
12:53 PM 43.0 °F 36.8 °F 30.9 °F 62% 30.03 in 10.0 mi NW 11.5 mph 17.3 mph N/A   Overcast
1:29 PM 44.6 °F 38.4 °F 30.2 °F 57% 30.03 in 10.0 mi WNW 12.7 mph 21.9 mph N/A   Mostly Cloudy
1:53 PM 45.0 °F 40.6 °F 32.0 °F 60% 30.03 in 10.0 mi WNW 8.1 mph 20.7 mph N/A   Overcast
2:53 PM 44.1 °F 39.0 °F 28.9 °F 55% 30.04 in 10.0 mi NW 9.2 mph 18.4 mph N/A   Overcast
3:53 PM 45.0 °F 41.8 °F 30.0 °F 56% 30.04 in 10.0 mi NW 5.8 mph - N/A   Partly Cloudy
4:53 PM 45.0 °F 39.3 °F 28.9 °F 53% 30.06 in 10.0 mi West 11.5 mph 19.6 mph N/A   Overcast
5:53 PM 39.9 °F 35.8 °F 30.0 °F 68% 30.08 in 10.0 mi WNW 5.8 mph - N/A   Clear
6:53 PM 37.0 °F - 30.9 °F 79% 30.09 in 10.0 mi Calm Calm - N/A   Clear
7:53 PM 35.1 °F - 30.9 °F 85% 30.11 in 10.0 mi Calm Calm - N/A   Clear
8:53 PM 33.1 °F - 30.9 °F 92% 30.11 in 10.0 mi Calm Calm - N/A   Clear
9:53 PM 32.0 °F - 30.0 °F 92% 30.12 in 10.0 mi Calm Calm - N/A   Clear
10:53 PM 30.9 °F - 28.9 °F 92% 30.12 in 9.0 mi Calm Calm - N/A   Partly Cloudy
11:53 PM 33.1 °F - 30.9 °F 92% 30.12 in 10.0 mi Calm Calm - N/A   Overcast